THORAD AGENA D DEB, 4855

Orbit data source: Space-Track

THORAD AGENA D DEB, 4855 is space debris in SSO originally from a launch on Wed, 08 Apr 1970 UTC launched from the Air Force Western Test Range (AFWTR). Debris objects in space refer to the collection of defunct objects orbiting the Earth. Examples of debris include non-operational satellites, rocket bodies, and fragments generated from explosions, collisions, or faulty payload assembly.

Loading next visibility...
Identifier
4855, 1970-025EK
Orbit
SSO
Country
Flag of USUS
Related business
Manufacturer
Unknown
Mission
Spacecraft
Bus & Motor
Unknown
Mass
Unknown
Launch date (UTC)
1970-04-08 (56 years ago)
Launch vehicle
Unknown
Launch site
Air Force Western Test Range (AFWTR)
Object type
Payload
Rocket body
Debris
Shape & HBR
Unknown shape, 0.1 m
Radar Cross Section
Medium (>0.1 m² and <1 m²)

Expand to show TLE details & history
Last TLE update: 2 days ago

TLE from 2 days ago
0 THORAD AGENA D DEB
1  4855U 70025EK  26171.44889788  .00000426  00000-0  49731-3 0  9998
2  4855  99.9509 124.8252 0017164  50.1253  68.2790 13.74824274797427
Epoch: 2026-06-20T10:46Z
TLE epoch observation values (Epoch: 2026-06-20T10:46:24.776Z)
Latitude
59.96475°
Longitude
-107.87143°
Altitude
987.753 km
Speed
7.366 km/s
True Right ascension
21h 29m 34s
True Declination
59° 49' 13"
Sunlit
Object was in daylight at epoch
Visualization orbit readout
Latitude
Unknown
Longitude
Unknown
Altitude
Unknown
Speed
Unknown
Apparent Right ascension
Unknown
Apparent Declination
Unknown
Sunlit
N/A
Visualization observer readout
Local Sidereal Time
23:18:20
Azimuth
Unknown
Elevation
Unknown
Doppler factor
Unknown
Orbital elements
Apogee altitude
992.212 km
Perigee altitude
966.955 km
Semi-major axis
7,357.72 km
Eccentricity
0.00172
Inclination
99.9509°
RAAN
124.8252°
Arg. of periapsis
50.1253°
True anomaly
68.46186°
Mean anomaly
68.279°
Eccentric anomaly
68.37042°
Mean motion
3.43897 °/min
Orbital period
104.68 mins
BSTAR
0.00049731
Loading maneuver chart data...
Computing Atmospheric mass density...

Documentation

Showing up to 5 results
|